Location: Bon Acre
(42.6442°N, 73.5758°W)
Time: 02:18:10
(UTC+00:00)

BlueWalker 3 - Visible Passes

Search period start: 18 February 2026 00:00
Search period end: 28 February 2026 00:00
Orbit: 451 x 460 km, 53.2° (Epoch: 17 February)

Date Brightness Start Highest point End Pass type
(mag) Time Alt. Az. Time Alt. Az. Time Alt. Az.
19 Feb 5.0 11:17:54 10° SSE 11:19:32 13° SE 11:21:10 10° E visible
22 Feb 3.1 11:05:39 10° SSW 11:09:03 41° SE 11:12:28 10° ENE visible
23 Feb 3.5 10:30:01 10° SSW 10:33:14 31° SE 10:36:28 10° ENE visible
24 Feb 3.9 09:54:51 12° S 09:57:26 24° SE 10:00:22 10° ENE visible
25 Feb 4.1 09:21:03 17° SE 09:21:38 18° SE 09:24:09 10° E visible
25 Feb 1.8 10:55:13 10° WSW 10:58:47 60° NNW 11:02:21 10° NE visible
26 Feb 4.9 08:47:04 12° ESE 08:47:04 12° ESE 08:47:41 10° E visible
26 Feb 1.6 10:20:48 24° WSW 10:22:51 79° NW 10:26:28 10° NE visible
27 Feb 1.6 09:46:38 71° SSW 09:46:57 80° SE 09:50:33 10° NE visible
